This is the latest recevied weather packets stored in our database for station/object K9TLD. If no packets are shown the sender has not sent any weather packets the latest 10 day(s).
| Time | Temp. | Humidity | Pressure | Rain* | Wind** | Luminosity | Snow |
|---|---|---|---|---|---|---|---|
| 1778260134 | 17.78° C | 36% | 1010.4 hPa | 0 mm | - | 749 W/m² | - |
| 1778259831 | 17.78° C | 37% | 1010.4 hPa | 0 mm | - | 748 W/m² | - |
| 1778259528 | 17.78° C | 40% | 1010.5 hPa | 0 mm | - | 736 W/m² | - |
| 1778259226 | 17.22° C | 40% | 1010.4 hPa | 0 mm | - | 664 W/m² | - |
| 1778258921 | 17.22° C | 40% | 1010.9 hPa | 0 mm | - | 722 W/m² | - |
| 1778258618 | 17.78° C | 36% | 1010.7 hPa | 0 mm | - | 727 W/m² | - |
| 1778258316 | 17.78° C | 38% | 1010.8 hPa | 0 mm | - | 728 W/m² | - |
| 1778258014 | 17.78° C | 38% | 1010.9 hPa | 0 mm | - | 697 W/m² | - |
| 1778257709 | 17.78° C | 40% | 1010.9 hPa | 0 mm | - | 702 W/m² | - |
| 1778257406 | 17.78° C | 40% | 1010.9 hPa | 0 mm | - | 733 W/m² | - |
| 1778257103 | 17.78° C | 39% | 1010.9 hPa | 0 mm | - | 640 W/m² | - |
| 1778256800 | 17.78° C | 38% | 1010.9 hPa | 0 mm | - | 241 W/m² | - |
| 1778256498 | 17.78° C | 41% | 1010.8 hPa | 0 mm | - | 673 W/m² | - |
| 1778256196 | 17.78° C | 41% | 1010.9 hPa | 0 mm | - | 654 W/m² | - |
| 1778255892 | 17.78° C | 39% | 1011.1 hPa | 0 mm | - | 679 W/m² | - |
| 1778255590 | 18.33° C | 37% | 1011 hPa | 0 mm | - | 665 W/m² | - |
| 1778255286 | 17.78° C | 36% | 1011 hPa | 0 mm | - | 656 W/m² | - |
| 1778254984 | 17.78° C | 38% | 1011.1 hPa | 0 mm | - | 647 W/m² | - |
| 1778254680 | 18.33° C | 37% | 1011.2 hPa | 0 mm | - | 639 W/m² | - |
| 1778254378 | 18.33° C | 31% | 1011.2 hPa | 0 mm | - | 632 W/m² | - |
| 1778254074 | 17.78° C | 37% | 1011.1 hPa | 0 mm | - | 623 W/m² | - |
| 1778253770 | 17.78° C | 34% | 1011 hPa | 0 mm | - | 612 W/m² | - |
| 1778253466 | 18.33° C | 34% | 1011.1 hPa | 0 mm | - | 600 W/m² | - |
| 1778253164 | 17.78° C | 32% | 1011.2 hPa | 0 mm | - | 594 W/m² | - |
| 1778252860 | 17.78° C | 34% | 1011.4 hPa | 0 mm | - | 583 W/m² | - |
* Rain latest hour (hover to see other rain measurements)
** Current wind speed in m/s (hover to see current wind gust speed)